星链-5312 (STARLINK-5312 )

导读

STARLINK-5312是美国太空探索技术公司(SpaceX)星链(Starlink)卫星互联网星座的一颗卫星,于北京时间2023年1月19日8时发射升空,属于星链第二代组网卫星。星链项目旨在构建覆盖全球的低轨卫星互联网,该卫星入轨后为全球偏远地区、海上与空中用户提供宽带互联网接入服务,属于美国低轨巨型星座部署的组成部分。

Basic Information
目录编号:
55311
目录名称:
STARLINK-5312
国际标识:
2023-010AU
轨道中心:
EARTH
卫星名称:
星链-5312
卫星全名:
星链-5312 (STARLINK-5312 )
卫星状态:
在轨 (已飞行1332 天)
发射日期:
2023-01-19 UTC
国别 :
美国 (US)
星等 :
--
This satellite is enrolled in the Space Conjunction Data Service (SCDS) and the current flight risk assessment level is: No High Risk
Orbit Information
数据来源 国际轨道数据 AOE轨道数据
星历时间 2026-09-12T13:51:41+0800
7小时前
查看轨道信息
2026-09-11T06:00:00+0800
1天前
查看轨道信息
半长轴 6950.211km 6950.215km
偏心率 0.000344 0.0003376
轨道倾角 69.998° 70.003°
近地点辐角 266.687° 273.349°
升交点赤经 254.191° 257.533°
平近点角 93.389° 127.980°
近地点 569.683km 569.731km
远地点 574.465km 574.425km
周期 96.107分钟 96.107分钟
每日圈数 14.983244 14.983229
Detailed Information
固有亮度:
5
最大亮度:
2.5
卫星平台:
Starlink v1.5
覆盖范围:
全球
运营商:
太空探索技术公司
运营商所在国:
美国
制造商(研发单位):
太空探索技术公司
制造商所在国:
美国
使用方式:
暂无
Satellite Introduction
星链(Starlink)计划是由太空探索技术公司(SpaceX)提出的一个巨型低轨卫星互联网星座项目,计划在2019年至2024年间在太空搭建由约1.2万颗卫星组成的“星链”网络,其中1584颗将部署在地球上空550千米处的近地轨道,并从2020年开始工作。该卫星仍在工作。
2D Orbit Map
3D Orbit Map
Orbit Altitude Analysis Chart
Orbit Inclination Analysis Chart
Orbit Comprehensive Analysis Chart
View Comprehensive Chart
Conjunction Data List
Event ID Objects TCA Miss Dist (km) Collision Risk Probability Collision Risk Index (CRI) Action
CDM_260905-044903-557905-531123
2026-09-05T
04:49:22+0000
2.590 km
极远距离
1.127875E-6 低风险 0.36
Miss Distance Evolution Trend with All Objects
Collision Probability Evolution Trend with All Objects